Find Starlink 5676

NORAD ID: 55464 Int'l Des: 2023-015 Owner: SPXS Country: US Constellation: starlink operational
LEOCIRCULAR

Live Position

Loading 3D Globe...

About Starlink 5676

Description loading...

Upcoming Passes

Passes for default location (London). Set your location on the main map for personalized predictions.

Altitude History

Loading altitude history...

Two-Line Element Set

1 55464U 23015R 26121.13797834 .00001905 00000-0 78737-4 0 9990
2 55464 43.0054 32.4923 0001321 265.9548 94.1153 15.27580953178746
Epoch: May 1, 2026 • Age: 10 hours

Current Status

Altitude 482.3 km
Velocity 7.63 km/s
Sub-Earth Point 11.64°N, 136.38°E
Launch Date Feb 2, 2023
Age 3.2 years
Type internet

Technical Details

Classification Payload
Mass 305.00 kg
Dry Mass 290.00 kg
Total Mass 305.00 kg
Length 0.20 m
Diameter 2.80 m
Span 9.00 m
Shape Box + pan
Manufacturer SPXS
Bus Type Starlink
Phase Status In Orbit
Owner/State SPXS/US

Most Searched